Location: Kuppenheim
(48.8299°N, 8.2568°E)
Time: 12:36:10
(UTC+00:00)

Cosmos 1763 Rocket - Pass Details

Date: 20 June 2021
Orbit: 732 x 781 km, 74.0° (Epoch: 29 July)

Event Time Altitude Azimuth Distance (km) Brightness Sun altitude
Exits shadow 01:15:45 15° 239° (WSW) 1,900 5.1 -13.9°
Maximum altitude 01:19:29 38° 302° (WNW) 1,118 4.4 -13.6°
Drops below altitude 10° 01:24:18 10° 11° (N) 2,278 7.2 -13.2°
Sets 01:26:51 0° 19° (NNE) 3,215 8.6 -13.1°
